Regional Weather Roundup
Issued by NWS

Home | Current Version | Previous Version | Graphics & Text | Print | Product List | Glossary On
Versions: 1 2 3 4 5 6 7 8 9 10 11 12 13 14 15 16 17 18 19 20 21 22 23 24 25 26 27 28 29 30 31 32 33 34 35 36 37 38 39 40 41 42 43 44 45 46 47 48 49
000
ASUS45 KBOU 061207
RWRCO

WEATHER ROUNDUP FOR COLORADO
NATIONAL WEATHER SERVICE DENVER/BOULDER CO
500 AM MST FRI MAR 06 2015

NOTE: "FAIR" INDICATES FEW OR NO CLOUDS BELOW 12000 FEET WITH NO
SIGNIFICANT WEATHER AND/OR OBSTRUCTIONS TO VISIBILITY.

COZ001>005-013-030-031-061300-
...NORTHWEST COLORADO...

CITY           SKY/WX    TMP DP  RH WIND       PRES   REMARKS
CRAIG          CLEAR     11   7  84 CALM      30.41S
HAYDEN         PTCLDY    12   5  73 SE9       30.39S WCI   0
MEEKER         CLEAR     20  12  71 SE8       30.42R WCI  10
MOUNT WERNER   NOT AVBL
STEAMBOAT SPGS PTCLDY     7   5  89 CALM      30.40S
WALDEN         CLEAR     18   9  68 SW6       30.33R WCI   9
$$

COZ006>008-011-061300-
...WEST CENTRAL VALLEYS...

CITY           SKY/WX    TMP DP  RH WIND       PRES   REMARKS
GRAND JUNCTION CLEAR     23  18  81 E6        30.42S WCI  16
MONTROSE       PTCLDY    24  13  62 SE8       30.44R WCI  15
EAGLE          PTCLDY    16  12  86 CALM      30.47R
RIFLE          PTCLDY    21  17  84 NE3       30.46R
DELTA          PTCLDY    26  18  72 CALM      30.45R
NUCLA          PTCLDY    23  14  68 E7        30.44R WCI  15
$$

COZ017>023-064>068-061300-
...SOUTHWEST COLORADO...

CITY           SKY/WX    TMP DP  RH WIND       PRES   REMARKS
DURANGO        PTCLDY    17  12  80 CALM      30.36R
CORTEZ         CLEAR     19  16  88 E3        30.38R
PAGOSA SPRINGS PTCLDY    13  11  93 CALM      30.36S
TELLURIDE      PTCLDY    19   4  53 SE6       30.39R WCI  10
WOLF CREEK PAS CLEAR     19  -4  35 CALM      30.41R
$$

COZ009-010-012-014-032>034-037-058>063-061300-
...CENTRAL COLORADO...

CITY           SKY/WX    TMP DP  RH WIND       PRES   REMARKS
ASPEN          PTCLDY    12   4  70 S8        30.39S WCI   0
BUENA VISTA    PTCLDY    13   5  70 W3        30.35R
COPPER MTN     PTCLDY    16  -4  41 MISG      30.33S
BERTHOUD PASS  NOT AVBL
COTTONWOOD PAS PTCLDY    28  -8  20 NW5       30.32R WCI  23
GUNNISON       MOCLDY     1  -8  66 CALM      30.48R
KREMMLING      PTCLDY     5   1  85 CALM      30.44R
LEADVILLE      MOCLDY     2  -7  66 NE6       30.34R WCI  -9
SALIDA         PTCLDY    25   5  42 N13       30.41S WCI  13
SUNLIGHT       PTCLDY    18  12  79 CALM        N/A
WILKERSON PASS PTCLDY    18  -6  35 NW6       30.33R WCI   9
$$

COZ069>075-061300-
...SAN LUIS VALLEY/SANGRE DE CRISTO MOUNTAINS...

CITY           SKY/WX    TMP DP  RH WIND       PRES   REMARKS
ALAMOSA        MOCLDY    12   8  84 CALM      30.38S
LA VETA PASS   PTCLDY    19   1  45 MISG      30.30R
SAGUACHE       PTCLDY    19   9  63 NW17      30.38S WCI   4
$$

COZ035-036-038>040-061300-
...NORTHERN COLORADO FRONT RANGE...

CITY           SKY/WX    TMP DP  RH WIND       PRES   REMARKS
DENVER INTL AP MOCLDY    26  11  52 W8        30.24R WCI  18
DMNS CITY PARK   N/A     24  14  65 S2        30.25S
AURORA         PTCLDY    28   8  43 S9        30.25R WCI  19
FRONT RANGE AP PTCLDY    28  14  54 SW9       30.24R WCI  20
ERIE MUNI ARPT PTCLDY    18  11  76 CALM      30.26R
BOULDER MUN AP PTCLDY    23  12  63 CALM      30.24R
CENTENNIAL     PTCLDY    29   8  41 S8        30.24R WCI  21
BROOMFIELD     PTCLDY    34   9  35 CALM      30.24R
FORT COLLINS   PTCLDY    19  14  79 CALM      30.25S
LONGMONT       PTCLDY    18  11  73 CALM      30.27S
$$

COZ041-046-047-076>085-087-088-061300-
...PIKES PEAK/PALMER DIVIDE AND SOUTHERN FOOTHILLS...

CITY           SKY/WX    TMP DP  RH WIND       PRES   REMARKS
COLO. SPRINGS  PTCLDY    21  10  62 N10       30.26R WCI  10
A. F. ACADEMY  CLEAR     19   5  54 NE9       30.25R WCI   8
ELLICOTT       NOT AVBL
FALCON         PTCLDY    19   6  59 W8        30.27R WCI   8
FORT CARSON    PTCLDY    22  11  62 N7        30.25R WCI  13
LIMON          PTCLDY     7   1  76 NW3       30.26R
MONUMENT HILL  PTCLDY    30   3  31 SW9       30.24R WCI  22
TRINIDAD       CLEAR     26  14  60 W12       30.28R WCI  16
$$

COZ042>045-048>051-090-091-061300-
...NORTHEAST COLORADO...

CITY           SKY/WX    TMP DP  RH WIND       PRES   REMARKS
GREELEY ARPT   PTCLDY    19  10  68 CALM      30.24S
AKRON          CLEAR     25  17  72 W12       30.23S WCI  14
BURLINGTON     CLEAR     25  18  74 W9        30.25R WCI  15
WRAY           CLEAR     23  19  85 W8        30.25S WCI  14
STERLING       CLEAR     21  19  93 SW8       30.25R WCI  12
HOLYOKE        CLEAR     28  19  69 W13       30.23S WCI  18
FORT MORGAN    CLEAR     20  17  87 W12       30.26R WCI   8
$$

COZ086-089-092>099-061300-
...SOUTHEAST COLORADO...

CITY           SKY/WX    TMP DP  RH WIND       PRES   REMARKS
PUEBLO         CLEAR     20  18  92 CALM      30.28R
LA JUNTA       CLEAR     27  21  78 W9        30.29S WCI  18
LAMAR          CLEAR     22  20  92 SW8       30.29R WCI  12
SPRINGFIELD      N/A     26  22  84 NW12      30.28R WCI  16
$$


USA.gov is the U.S. government's official web portal to all federal, state and local government web resources and services.